2023/01/27 00:00:00,127.5,-4.3
2023/01/27 00:10:00,127.4,-4.7
2023/01/27 00:20:00,127.7,-4.6
2023/01/27 00:30:00,127.6,-4.4
2023/01/27 00:40:00,127.5,-4.8
2023/01/27 00:50:00,127.2,-4.6
2023/01/27 01:00:00,127.2,-4.4
2023/01/27 01:10:00,127.0,-4.7
2023/01/27 01:20:00,126.7,-4.5
2023/01/27 01:30:00,126.5,-4.6
2023/01/27 01:40:00,126.5,-4.6
2023/01/27 01:50:00,126.4,-4.6
2023/01/27 02:00:00,126.2,-4.6
2023/01/27 02:10:00,126.4,-4.7
2023/01/27 02:20:00,126.3,-4.7
2023/01/27 02:30:00,126.2,-4.4
2023/01/27 02:40:00,126.0,-4.6
2023/01/27 02:50:00,125.7,-4.4
2023/01/27 03:00:00,125.7,-4.5
2023/01/27 03:10:00,125.7,-4.5
2023/01/27 03:20:00,125.3,-4.5
2023/01/27 03:30:00,125.3,-4.5
2023/01/27 03:40:00,125.2,-4.5
2023/01/27 03:50:00,125.2,-4.3
2023/01/27 04:00:00,125.0,-4.3
2023/01/27 04:10:00,124.7,-3.8
2023/01/27 04:20:00,124.5,-4.1
2023/01/27 04:30:00,124.5,-3.9
2023/01/27 04:40:00,124.6,-3.7
2023/01/27 04:50:00,124.4,-3.7
2023/01/27 05:00:00,124.3,-3.7
2023/01/27 05:10:00,124.4,-3.6
2023/01/27 05:20:00,124.3,-3.8
2023/01/27 05:30:00,124.3,-3.6
2023/01/27 05:40:00,124.6,-3.6
2023/01/27 05:50:00,124.5,-3.5
2023/01/27 06:00:00,124.6,-3.5
2023/01/27 06:10:00,124.5,-3.7
2023/01/27 06:20:00,124.4,-3.4
2023/01/27 06:30:00,124.5,-3.5
2023/01/27 06:40:00,124.6,-3.5
2023/01/27 06:50:00,124.4,-3.4
2023/01/27 07:00:00,124.3,-3.5
2023/01/27 07:10:00,124.6,-3.2
2023/01/27 07:20:00,124.4,-3.3
2023/01/27 07:30:00,124.5,-3.1
2023/01/27 07:40:00,124.5,-3.2
2023/01/27 07:50:00,124.4,-2.7
2023/01/27 08:00:00,124.3,-2.3
2023/01/27 08:10:00,124.2,-1.7
2023/01/27 08:20:00,124.0,-1.5
2023/01/27 08:30:00,123.8,-1.5
2023/01/27 08:40:00,123.9,-1.4
2023/01/27 08:50:00,123.9,-1.0
2023/01/27 09:00:00,123.7,-1.1
2023/01/27 09:10:00,123.4,-1.2
2023/01/27 09:20:00,123.4,-0.9
2023/01/27 09:30:00,123.3,-0.4
2023/01/27 09:40:00,123.1,-0.2
2023/01/27 09:50:00,123.2, 0.5
2023/01/27 10:00:00,123.3, 0.7
2023/01/27 10:10:00,123.3, 0.2
2023/01/27 10:20:00,123.6, 0.7
2023/01/27 10:30:00,123.5, 0.2
2023/01/27 10:40:00,123.5, 0.0
2023/01/27 10:50:00,123.5, 0.5
2023/01/27 11:00:00,123.3, 0.6
2023/01/27 11:10:00,123.6, 0.5
2023/01/27 11:20:00,123.8, 0.2
2023/01/27 11:30:00,123.6,-0.4
2023/01/27 11:40:00,123.3, 0.8
2023/01/27 11:50:00,123.2, 0.9
2023/01/27 12:00:00,123.3, 1.0
2023/01/27 12:10:00,123.0, 1.8
2023/01/27 12:20:00,122.8, 1.7
2023/01/27 12:30:00,122.8, 1.5
2023/01/27 12:40:00,122.7, 0.4
2023/01/27 12:50:00,122.6, 0.8
2023/01/27 13:00:00,122.3, 1.2
2023/01/27 13:10:00,122.3, 1.2
2023/01/27 13:20:00,122.4, 0.7
2023/01/27 13:30:00,122.5, 0.5
2023/01/27 13:40:00,122.4, 0.7
2023/01/27 13:50:00,122.3, 0.2
2023/01/27 14:00:00,122.9,-0.7
2023/01/27 14:10:00,123.8,-1.0
2023/01/27 14:20:00,124.4,-1.1
2023/01/27 14:30:00,124.6,-1.1
2023/01/27 14:40:00,124.7,-1.5
2023/01/27 14:50:00,124.6,-1.4
2023/01/27 15:00:00,125.4,-1.8
2023/01/27 15:10:00,126.5,-1.9
2023/01/27 15:20:00,126.8,-2.1
2023/01/27 15:30:00,127.5,-2.7
2023/01/27 15:40:00,128.4,-2.1
2023/01/27 15:50:00,129.2,-2.3
2023/01/27 16:00:00,130.5,-2.4
2023/01/27 16:10:00,131.1,-2.4
2023/01/27 16:20:00,132.0,-2.6
2023/01/27 16:30:00,133.0,-2.8
2023/01/27 16:40:00,133.6,-2.9
2023/01/27 16:50:00,134.5,-3.0
2023/01/27 17:00:00,135.6,-3.0
2023/01/27 17:10:00,136.3,-3.2
2023/01/27 17:20:00,136.5,-3.2
2023/01/27 17:30:00,137.1,-3.5
2023/01/27 17:40:00,137.9,-3.4
2023/01/27 17:50:00,138.9,-3.5
2023/01/27 18:00:00,139.8,-3.5
2023/01/27 18:10:00,140.4,-3.9
2023/01/27 18:20:00,140.1,-3.9
2023/01/27 18:30:00,140.1,-3.9
2023/01/27 18:40:00,140.0,-4.3
2023/01/27 18:50:00,139.6,-4.2
2023/01/27 19:00:00,140.3,-4.1
2023/01/27 19:10:00,141.5,-4.4
2023/01/27 19:20:00,141.8,-4.4
2023/01/27 19:30:00,141.1,-4.3
2023/01/27 19:40:00,140.7,-4.1
2023/01/27 19:50:00,140.8,-4.4
2023/01/27 20:00:00,140.5,-4.1
2023/01/27 20:10:00,140.7,-4.3
2023/01/27 20:20:00,141.1,-4.4
2023/01/27 20:30:00,141.7,-4.3
2023/01/27 20:40:00,142.1,-4.2
2023/01/27 20:50:00,141.9,-4.2
2023/01/27 21:00:00,141.4,-3.9
2023/01/27 21:10:00,142.7,-4.0
2023/01/27 21:20:00,143.3,-4.3
2023/01/27 21:30:00,144.0,-4.0
2023/01/27 21:40:00,144.7,-4.6
2023/01/27 21:50:00,145.0,-3.9
2023/01/27 22:00:00,145.5,-4.1
2023/01/27 22:10:00,146.1,-3.9
2023/01/27 22:20:00,147.0,-4.3
2023/01/27 22:30:00,148.0,-3.9
2023/01/27 22:40:00,148.6,-4.3
2023/01/27 22:50:00,149.2,-4.2
2023/01/27 23:00:00,149.9,-4.0
2023/01/27 23:10:00,150.3,-4.0
2023/01/27 23:20:00,150.9,-4.2
2023/01/27 23:30:00,151.8,-4.9
2023/01/27 23:40:00,153.3,-4.3
2023/01/27 23:50:00,154.3,-4.4
